Location: ??????????
(48.4699°N, 37.9573°E)
Time: 12:49:05
(UTC+00:00)

SL-14 R/B - Pass Details

Date: 20 January 2021
Orbit: 520 x 553 km, 82.4° (Epoch: 26 February)

Event Time Altitude Azimuth Distance (km) Brightness Sun altitude
Rises 15:23:57 0° 202° (SSW) 2,642 7.4 -12.4°
Reaches altitude 10° 15:26:08 10° 208° (SSW) 1,762 6.5 -12.7°
Maximum altitude 15:29:53 48° 284° (WNW) 695 4.2 -13.3°
Drops below altitude 10° 15:33:42 10° 360° (N) 1,794 5.8 -13.9°
Sets 15:35:56 0° 6° (N) 2,696 6.6 -14.3°
